カタログに戻る

SHIYAN 10 02

SY-10 02

運用中科学HEO
NORAD 54878·PAYLOAD·🇨🇳 China

打ち上げ Dec 29, 2022 から Xichang Satellite Launch Center

Loading…

次のパス (今後24時間)

TLE

最新Source: Space-Track

元期: Sep 13, 2026, 21:08 UTC

1 54878U 22178A   26256.88096953  .00000837  00000-0  00000-0 0  9999
2 54878  64.0134 310.3824 6904856 267.6534  18.6662  2.00653885 18335

AllMySatでSHIYAN 10 02をリアルタイム追跡

Download on the App Store